SCP
0 0 0 0 0 0 0 0 0 0 0 0 0 0 0 0 0 0 0 0 0 0 0 0 0 0 0 0 0 0 0 0 0 0 0 0 0 0 0 0 0 0 0 0
0 0 0 0 0 0 0 0 0 0 0 0 0 0 0 0 0 0 0 0 0 0 0 0 0 0 0 0 0 0 0 0 0 0 0 0 0 0 0 0 0 0 0 0
0 0 0 0 0 0 0 0 0 0 0 0 0 0 0 0 0 0 0 0 0 0 0 0 0 0 0 0 0 0 0 0 0 0 0 0 0 0 0 0 0 0 0 0
0 0 0 0 0 0 0 0 0 0 0 0 0 0 0 0 0 0 0 0 0 0 0 0 0 0 0 0 0 0 0 0 0 0 0 0 0 0 0 0 0 0 0 0
0 0 0 0 0 0 0 0 0 0 0 0 0 0 0 0 0 0 0 0 0 0 0 0 0 0 0 0 0 0 0 0 0 0 0 0 0 0 0 0 0 0 0 0
0 0 0 0 0 0 0 0 0 0 0 0 0 0 0 0 0 0 0 0 0 0 0 0 0 0 0 0 0 0 0 0 0 0 0 0 0 0 0 0 0 0 0 0
0 0 0 0 0 0 0 0 0 0 0 0 0 0 0 0 0 0 0 0 0 0 0 0 0 0 0 0 0 0 0 0 0 0 0 0 0 0 0 0 0 0 0 0
0 0 0 0 0 0 0 0 0 0 0 0 0 0 0 0 0 0 0 0 0 0 0 0 0 0 0 0 0 0 0 0 0 0 0 0 0 0 0 0 0 0 0 0
0 0 0 0 0 0 0 0 0 0 0 0 0 0 0 0 0 0 0 0 0 0 0 0 0 0 0 0 0 0 0 0 0 0 0 0 0 0 0 0 0 0 0 0
0 0 0 0 0 0 0 0 0 0 0 0 0 0 0 0 0 0 0 0 0 0 0 0 0 0 0 0 0 0 0 0 0 0 0 0 0 0 0 0 0 0 0 0
0 0 0 0 0 0 0 0 0 0 0 0 0 0 0 0 -0 0 0 0 0 0 0 0 0 0 0 0 0 0 0 0 0 0 0 0 0 0 0 0 0 0 0 0
0 0 0 0 0 0 0 0 0 0 0 0 0 0 0 -0 -0 -0 0 0 0 0 0 0 0 0 0 0 0 0 0 0 0 0 0 0 0 0 0 0 0 0 0 0
0 0 0 0 0 0 0 0 0 0 0 0 0 0 0 0 -0 -0 0 0 0 0 0 0 0 0 0 0 0 0 0 0 0 0 0 0 0 0 0 0 0 0 0 0
0 0 0 0 0 0 0 0 0 0 0 0 0 0 0 0 0 -0 0 0 0 0 0 0 0 0 0 0 0 0 0 0 0 0 0 0 0 0 0 0 0 0 0 0
0 0 0 0 0 0 0 0 0 0 0 0 0 0 0 0 0 0 0 -0 0 0 0 0 0 0 0 0 0 0 0 0 0 0 0 0 0 0 0 0 0 0 0 0
0 0 0 0 0 0 0 0 0 0 0 0 0 0 -0 -0 0 0 0 -0 -0 -0 0 0 0 0 0 0 0 0 0 0 0 0 0 0 0 0 0 0 0 0 0 0
0 0 0 0 0 0 0 0 0 0 0 0 0 0 0 0 0 0 -0 -0 -0 -0 0 0 0 0 0 0 0 0 0 0 0 0 0 0 0 0 0 0 0 0 0 0
0 0 0 0 0 0 0 0 0 0 0 0 0 0 0 0 0 0 -0 -0 -0 -0 0 0 0 0 0 0 0 0 0 0 0 0 0 0 0 0 0 0 0 0 0 0
0 0 0 0 0 0 0 0 0 0 0 0 0 0 0 0 0 0 -0 -0 0 0 0 0 0 0 0 0 0 0 0 0 0 0 0 0 0 0 0 0 0 0 0 0
0 0 0 0 0 0 0 0 0 0 0 0 0 0 0 0 0 0 -0 0 0 0 0 0 0 0 0 0 0 0 0 0 0 0 0 0 0 0 0 0 0 0 0 0
0 0 0 0 0 0 0 -0 0 0 0 0 0 0 0 0 0 0 0 0 0 0 0 0 0 0 0 0 0 0 0 0 0 0 0 0 0 0 0 0 0 0 0 0
0 0 0 0 0 0 0 -0 -0 0 0 0 0 0 0 0 0 0 0 0 0 0 0 0 0 0 0 0 0 0 0 0 0 0 0 0 0 0 0 0 0 0 0 0
0 0 0 0 0 0 -0 -0 0 0 0 0 0 0 0 0 0 0 0 0 0 0 0 0 0 0 0 0 0 0 0 0 0 0 0 0 0 0 0 0 0 0 0 0
0 -0 -0 -0 -0 0 0 0 0 0 0 0 0 0 0 0 0 0 0 0 0 0 0 0 0 0 0 0 0 0 0 0 0 0 0 0 0 0 0 0 0 0 0 0
0 -0 -0 -0 -0 0 0 0 0 0 0 -0 0 0 0 0 -0 0 0 0 0 0 0 0 0 0 0 0 0 0 0 0 0 0 0 0 0 0 0 0 0 0 0 0
0 -0 -0 -0 0 0 0 0 0 0 -0 -0 -0 0 0 -0 -0 0 0 0 0 0 0 0 0 0 0 0 0 0 0 0 0 0 0 0 0 0 0 0 0 0 0 0
Wind_Speed
2 4 2 5 5 4 3 3 3 4 2 1 4 6 6 4 3 4 4 4 4 4 2 1 1 2 2 2 1 2 1 1 1 1 1 1 1 1 1 1 1 2 2 2
4 2 5 3 2 1 1 2 2 3 1 1 3 6 6 5 6 6 7 6 5 3 1 1 1 1 2 2 2 2 2 1 1 1 0 0 0 0 0 1 1 2 2 2
4 3 2 2 1 1 2 3 3 2 2 2 2 5 4 3 3 3 4 5 5 5 4 2 1 1 1 1 2 1 1 1 0 1 1 1 1 1 1 1 1 2 2 1
1 2 0 2 2 2 3 3 3 2 1 2 1 5 6 4 3 4 4 4 4 4 4 3 2 1 1 1 1 1 1 1 0 1 1 2 1 0 1 1 1 1 2 2
2 1 1 2 2 2 3 0 1 1 2 1 1 3 8 2 5 6 5 5 4 4 4 4 4 3 2 1 1 1 1 1 1 1 1 1 1 1 0 0 0 1 1 1
1 1 0 2 0 2 2 4 5 5 4 2 4 5 8 5 7 5 3 3 3 3 4 3 2 2 1 0 1 1 1 0 0 1 1 2 2 1 0 0 1 1 1 1
2 2 1 1 2 3 4 5 4 4 3 7 2 4 9 6 4 5 4 4 3 3 3 3 2 2 1 1 1 1 1 0 0 0 0 1 2 2 2 1 1 1 1 2
1 3 2 0 3 3 2 5 6 5 5 5 2 6 8 4 3 2 1 1 1 2 2 3 4 3 3 2 1 1 1 1 1 0 1 0 1 1 1 2 2 2 2 2
3 3 1 1 0 4 4 3 4 4 1 3 6 6 7 2 3 2 1 1 1 1 2 2 3 3 3 3 3 2 2 1 1 1 1 1 1 1 1 2 1 2 2 2
3 2 2 2 1 1 2 5 4 4 3 4 6 5 5 4 3 2 2 2 2 1 1 1 2 2 2 2 2 2 2 2 2 1 1 1 1 1 1 1 1 2 2 1
2 3 2 1 3 4 2 2 3 3 4 4 4 8 4 4 2 2 3 2 2 2 2 2 2 1 1 1 1 1 1 1 1 1 1 1 1 1 1 1 1 2 2 1
2 3 2 4 3 1 3 4 5 4 4 4 3 8 3 2 1 1 2 2 2 2 2 1 1 1 1 1 1 1 1 1 1 1 1 1 1 1 1 2 2 2 2 2
3 4 1 4 3 2 1 2 3 3 3 4 5 8 2 2 2 2 2 3 2 2 2 2 1 1 2 2 2 2 2 2 1 1 1 1 1 1 2 2 2 2 2 2
3 3 5 7 6 4 4 4 4 4 4 5 8 8 7 4 4 5 4 3 2 2 2 2 2 2 2 2 2 2 2 2 1 1 1 1 2 2 2 2 2 2 2 2
3 3 3 4 4 3 5 6 6 8 8 8 8 7 9 5 5 5 4 3 3 3 3 3 3 3 3 3 2 2 2 2 1 1 1 2 2 2 2 2 2 2 2 3
2 2 1 3 3 3 5 7 7 8 7 7 6 9 6 4 3 3 4 3 4 4 5 4 4 3 3 3 2 2 2 2 1 2 2 2 2 2 2 2 2 2 2 2
2 3 2 3 3 2 7 8 8 6 6 7 9 8 3 3 4 5 5 4 5 5 5 4 4 4 4 3 3 3 2 2 2 2 2 2 2 2 2 2 2 2 2 2
4 3 2 0 2 6 7 2 5 5 5 6 5 5 4 6 5 5 4 3 4 4 4 5 4 3 3 3 2 2 2 1 2 2 2 2 2 2 2 2 2 3 2 3
3 4 3 2 2 8 7 2 3 4 6 5 6 5 4 3 3 4 2 2 3 4 5 4 4 3 3 2 2 1 1 1 1 2 2 2 2 2 2 2 3 2 2 3
2 3 3 3 3 7 6 2 0 1 5 3 4 4 3 1 2 5 2 3 4 4 4 3 3 2 2 2 1 1 1 1 2 2 2 2 2 2 3 3 3 2 2 3
1 1 3 4 5 9 5 1 2 2 6 2 3 4 3 4 5 4 4 4 3 3 4 3 2 2 2 2 1 1 1 2 2 1 1 1 2 2 2 2 2 2 2 2
6 4 5 4 4 9 2 3 5 5 2 2 3 3 4 5 4 4 4 3 3 3 3 3 2 2 2 1 1 1 2 2 1 1 1 1 2 2 2 2 2 2 2 2
6 7 6 8 8 4 3 4 4 2 3 3 3 4 3 4 4 4 4 3 3 3 3 2 2 2 3 2 1 2 2 1 1 1 1 2 2 1 1 1 2 2 1 2
4 2 3 4 7 5 4 4 3 3 3 3 4 4 3 4 4 4 4 3 3 3 3 2 2 2 3 2 2 2 2 1 0 1 1 1 1 2 2 1 1 1 2 2
5 3 3 5 6 4 4 4 4 3 3 3 4 3 4 4 4 4 3 3 3 3 2 2 2 3 3 2 2 2 1 1 1 1 1 1 1 1 2 2 2 2 2 2
5 6 6 8 7 5 6 4 3 3 4 4 4 4 3 3 4 3 3 3 3 3 2 2 2 2 3 2 2 2 2 1 1 1 1 1 1 1 1 2 3 4 4 6
Wind_Direction
63 81 180 211 197 191 179 188 231 249 242 193 229 250 250 242 222 217 211 208 211 220 228 187 154 144 131 124 124 122 114 137 114 97 96 69 4 342 357 17 30 31 24 24
61 243 234 214 207 194 200 218 254 291 310 216 261 269 252 228 219 214 209 211 214 227 257 245 214 167 163 165 164 144 143 168 165 165 182 154 153 266 310 354 17 19 20 10
165 233 232 178 185 186 241 204 219 242 341 6 353 301 266 254 229 226 215 206 207 202 202 211 228 236 195 177 184 149 150 147 166 122 93 68 55 34 13 357 352 352 2 358
205 281 186 157 202 176 248 233 199 181 105 276 149 281 272 255 265 251 231 217 216 211 201 201 204 231 211 203 173 121 122 118 103 123 141 144 146 196 280 284 297 327 348 345
241 301 126 180 213 165 211 289 123 141 140 315 238 223 279 264 254 255 241 229 226 214 198 200 201 206 213 194 152 124 111 124 129 130 159 155 164 205 223 345 297 319 324 320
238 295 206 192 160 139 116 52 45 48 70 276 224 192 271 238 230 249 245 235 225 216 200 197 195 176 166 131 94 105 121 107 148 139 163 160 163 188 140 333 282 297 297 293
333 318 338 75 74 34 77 85 33 357 350 254 236 209 249 247 242 229 232 237 225 211 196 192 189 189 193 197 164 126 150 176 267 74 285 197 184 185 196 219 234 251 268 275
154 276 263 51 154 173 174 143 157 200 232 277 286 238 254 262 287 286 258 232 213 202 203 205 203 198 200 209 196 180 186 217 229 222 283 246 196 193 216 228 240 246 249 252
171 246 324 335 78 145 145 177 164 138 182 273 268 280 296 288 324 342 356 18 274 236 229 224 218 206 203 206 209 201 197 207 223 220 256 268 229 227 231 236 237 248 259 268
144 226 285 315 40 28 148 148 112 131 176 256 281 267 255 267 279 284 285 284 283 278 278 263 242 229 223 215 213 206 202 207 220 221 228 270 266 250 242 242 248 263 272 275
114 145 305 350 204 197 145 151 143 148 174 186 259 267 236 228 248 260 272 280 265 262 255 259 261 257 238 220 198 206 211 211 218 228 246 252 270 269 261 256 256 266 270 262
124 125 241 259 267 244 196 188 157 169 226 203 217 266 282 227 278 291 297 298 287 282 281 273 264 260 246 237 235 232 236 228 241 233 241 262 272 272 263 269 276 278 273 257
138 125 53 337 321 339 246 214 183 148 151 189 208 260 308 357 342 324 303 293 289 292 301 305 293 261 254 248 249 254 249 249 260 255 246 265 266 265 263 268 279 283 279 277
118 147 183 208 227 199 232 231 198 162 196 224 229 251 285 303 307 311 308 294 289 293 295 296 292 280 276 266 255 253 256 253 251 246 250 264 267 264 267 272 277 279 279 279
109 181 224 256 270 232 234 233 215 210 212 216 241 243 263 263 265 277 284 290 305 307 302 292 288 288 293 291 276 259 268 269 259 236 242 256 273 278 275 276 278 284 284 281
87 159 191 282 283 262 261 249 227 231 232 239 256 266 261 264 271 285 286 284 290 292 292 292 291 290 282 278 271 269 275 270 248 230 244 261 270 281 276 269 273 285 292 292
143 141 147 264 308 340 270 235 206 214 218 206 229 246 267 284 273 271 279 278 278 285 292 291 289 286 283 276 262 251 257 266 240 234 247 256 258 273 274 275 276 277 276 277
150 141 149 207 29 242 248 219 196 211 243 227 239 258 253 257 272 273 260 255 279 295 298 299 297 297 294 291 285 268 256 249 247 242 246 255 263 268 277 276 270 271 269 268
169 152 147 155 231 275 288 243 175 195 263 227 232 257 273 290 305 285 241 253 269 281 284 282 281 281 289 293 290 282 276 269 260 255 258 262 265 268 269 269 271 270 271 275
61 121 139 155 199 244 256 254 246 107 276 237 218 245 266 325 297 273 286 302 301 303 299 297 304 303 292 293 299 289 285 283 269 270 272 272 269 265 266 266 272 273 270 273
100 132 179 195 230 261 255 241 103 175 258 248 226 237 230 224 234 268 296 296 296 301 308 311 311 296 283 283 285 273 280 276 283 294 291 293 287 274 267 268 269 273 278 286
178 178 197 176 212 254 219 142 185 227 268 266 256 246 238 251 272 286 287 290 303 311 319 322 319 309 303 284 226 262 273 283 306 324 315 307 298 288 291 286 288 280 276 288
201 195 193 198 220 253 209 208 239 243 257 266 264 264 246 256 267 280 283 286 293 297 304 312 310 308 308 303 253 252 282 294 314 329 315 312 317 316 313 296 294 298 288 283
244 194 194 250 262 259 253 259 270 254 248 264 266 266 248 250 261 271 278 287 293 296 299 312 316 305 302 308 309 279 293 308 288 290 302 309 313 321 324 316 303 298 291 286
226 178 207 253 270 291 267 236 242 257 257 271 284 270 247 248 260 255 262 271 278 293 301 299 288 290 295 306 307 303 301 318 312 297 297 307 310 306 316 319 308 299 279 288
207 191 197 235 232 217 251 245 219 230 251 256 271 286 276 247 253 257 260 262 268 281 288 293 292 290 294 301 303 306 306 297 280 294 304 305 305 313 322 320 324 323 317 323